,,,PA_Meas_PMT16A,,PR_Meas_QMR101_102,,RH_Meas_QMH101,,SR_Meas_QMS101,,TA_Meas_QMH101,,GenWind,,GenWind,
date,time,status,PA,status,PR,status,RH,status,SR,status,TA,status,DirAvg,status,SpdAvg,
2009-09-06, 00:00:05,VALID,1000.36,VALID,0,VALID,81.8658,VALID,0,VALID,23.7616,VALID,135,VALID,1.59141,
2009-09-06, 00:01:05,VALID,1000.34,VALID,0,VALID,82.0108,VALID,0,VALID,23.7012,VALID,136,VALID,1.64297,
2009-09-06, 00:02:05,VALID,1000.3,VALID,0,VALID,81.9421,VALID,0,VALID,23.6835,VALID,139,VALID,1.29922,
2009-09-06, 00:03:05,VALID,1000.29,VALID,0,VALID,81.82,VALID,0,VALID,23.6622,VALID,134,VALID,1.76836,
2009-09-06, 00:04:05,VALID,1000.32,VALID,0,VALID,81.6674,VALID,0,VALID,23.6427,VALID,139,VALID,1.81914,
2009-09-06, 00:05:05,VALID,1000.32,VALID,0,VALID,81.4691,VALID,0,VALID,23.6427,VALID,142,VALID,1.77578,
2009-09-06, 00:06:05,VALID,1000.34,VALID,0,VALID,81.1257,VALID,0,VALID,23.6427,VALID,146,VALID,1.97617,
2009-09-06, 00:07:05,VALID,1000.34,VALID,0,VALID,81.2173,VALID,0,VALID,23.703,VALID,125,VALID,2.51289,
2009-09-06, 00:08:05,VALID,1000.36,VALID,0,VALID,81.0342,VALID,0,VALID,23.7402,VALID,135,VALID,2.30234,
2009-09-06, 00:09:05,VALID,1000.36,VALID,0,VALID,80.9426,VALID,0,VALID,23.7597,VALID,137,VALID,1.85977,
2009-09-06, 00:10:05,VALID,1000.37,VALID,0,VALID,80.8206,VALID,0,VALID,23.7988,VALID,136,VALID,1.94648,
2009-09-06, 00:11:05,VALID,1000.34,VALID,0,VALID,80.79,VALID,0,VALID,23.8201,VALID,139,VALID,1.84609,
2009-09-06, 00:12:05,VALID,1000.34,VALID,0,VALID,80.7672,VALID,0,VALID,23.7793,VALID,144,VALID,2.05625,
2009-09-06, 00:13:05,VALID,1000.32,VALID,0,VALID,80.6146,VALID,0,VALID,23.7988,VALID,129,VALID,1.98789,
2009-09-06, 00:14:05,VALID,1000.31,VALID,0,VALID,80.5993,VALID,0,VALID,23.7988,VALID,135,VALID,2.11719,
2009-09-06, 00:15:05,VALID,1000.28,VALID,0,VALID,80.1186,VALID,0,VALID,23.7988,VALID,148,VALID,2.31484,
2009-09-06, 00:16:05,VALID,1000.3,VALID,0,VALID,80.0652,VALID,0,VALID,23.8573,VALID,154,VALID,2.10273,
2009-09-06, 00:17:05,VALID,1000.3,VALID,0,VALID,79.9889,VALID,0,VALID,23.9177,VALID,152,VALID,1.65391,
2009-09-06, 00:18:05,VALID,1000.27,VALID,0,VALID,80.1873,VALID,0,VALID,23.8768,VALID,150,VALID,2.01406,
2009-09-06, 00:19:05,VALID,1000.31,VALID,0,VALID,80.4009,VALID,0,VALID,23.8378,VALID,148,VALID,1.99258,
2009-09-06, 00:20:05,VALID,1000.31,VALID,0,VALID,80.4162,VALID,0,VALID,23.8378,VALID,146,VALID,1.86523,
2009-09-06, 00:21:05,VALID,1000.26,VALID,0,VALID,80.4772,VALID,0,VALID,23.8183,VALID,153,VALID,1.60078,
2009-09-06, 00:22:05,VALID,1000.27,VALID,0,VALID,80.4772,VALID,0,VALID,23.8396,VALID,152,VALID,1.91484,
2009-09-06, 00:23:05,VALID,1000.29,VALID,0,VALID,80.5764,VALID,0,VALID,23.7988,VALID,160,VALID,1.95156,
2009-09-06, 00:24:05,VALID,1000.33,VALID,0,VALID,80.6146,VALID,0,VALID,23.7988,VALID,160,VALID,1.43047,
2009-09-06, 00:25:05,VALID,1000.31,VALID,0,VALID,80.256,VALID,0,VALID,23.8183,VALID,154,VALID,2.06367,
2009-09-06, 00:26:05,VALID,1000.31,VALID,0,VALID,80.1797,VALID,0,VALID,23.8573,VALID,147,VALID,2.51523,
2009-09-06, 00:27:05,VALID,1000.32,VALID,0,VALID,80.0271,VALID,0,VALID,23.8963,VALID,151,VALID,1.83359,
2009-09-06, 00:28:05,VALID,1000.29,VALID,0,VALID,79.9508,VALID,0,VALID,23.8963,VALID,149,VALID,2.5918,
2009-09-06, 00:29:05,VALID,1000.29,VALID,0,VALID,79.7906,VALID,0,VALID,23.9354,VALID,140,VALID,1.81562,
2009-09-06, 00:30:05,VALID,1000.26,VALID,0,VALID,79.5922,VALID,0,VALID,23.9549,VALID,137,VALID,2.66211,
2009-09-06, 00:31:05,VALID,1000.29,VALID,0,VALID,79.5846,VALID,0,VALID,23.9744,VALID,147,VALID,1.93008,
2009-09-06, 00:32:05,VALID,1000.32,VALID,0,VALID,79.638,VALID,0,VALID,23.9744,VALID,148,VALID,1.87891,
2009-09-06, 00:33:05,VALID,1000.28,VALID,0,VALID,79.8058,VALID,0,VALID,23.9354,VALID,139,VALID,1.20938,
2009-09-06, 00:34:05,VALID,1000.3,VALID,0,VALID,79.9889,VALID,0,VALID,23.8768,VALID,141,VALID,1.71758,
2009-09-06, 00:35:05,VALID,1000.3,VALID,0,VALID,80.1415,VALID,0,VALID,23.8378,VALID,135,VALID,1.61797,
2009-09-06, 00:36:05,VALID,1000.31,VALID,0,VALID,80.2407,VALID,0,VALID,23.7597,VALID,136,VALID,2.23555,
2009-09-06, 00:37:05,VALID,1000.31,VALID,0,VALID,80.4696,VALID,0,VALID,23.7207,VALID,136,VALID,1.94766,
2009-09-06, 00:38:05,VALID,1000.31,VALID,0,VALID,80.4238,VALID,0,VALID,23.7207,VALID,136,VALID,2.0793,
2009-09-06, 00:39:05,VALID,1000.29,VALID,0,VALID,80.4696,VALID,0,VALID,23.7225,VALID,130,VALID,1.66875,
2009-09-06, 00:40:05,VALID,1000.32,VALID,0,VALID,80.4925,VALID,0,VALID,23.703,VALID,128,VALID,1.6375,
2009-09-06, 00:41:05,VALID,1000.32,VALID,0,VALID,80.2178,VALID,0,VALID,23.6427,VALID,139,VALID,2.22734,
2009-09-06, 00:42:05,VALID,1000.34,VALID,0,VALID,79.9126,VALID,0,VALID,23.703,VALID,140,VALID,1.9625,
2009-09-06, 00:43:05,VALID,1000.37,VALID,0,VALID,79.9203,VALID,0,VALID,23.7189,VALID,137,VALID,1.82617,
2009-09-06, 00:44:05,VALID,1000.38,VALID,0,VALID,79.8745,VALID,0,VALID,23.7384,VALID,146,VALID,1.59648,
2009-09-06, 00:45:05,VALID,1000.38,VALID,0,VALID,79.8211,VALID,0,VALID,23.7793,VALID,142,VALID,1.65937,
2009-09-06, 00:46:05,VALID,1000.42,VALID,0,VALID,79.8669,VALID,0.112286,VALID,23.7793,VALID,149,VALID,1.55977,
2009-09-06, 00:47:05,VALID,1000.4,VALID,0,VALID,80.0576,VALID,0.112286,VALID,23.7189,VALID,141,VALID,1.42891,
2009-09-06, 00:48:05,VALID,1000.39,VALID,0,VALID,80.2026,VALID,0.112286,VALID,23.7012,VALID,147,VALID,1.77031,
2009-09-06, 00:49:05,VALID,1000.37,VALID,0,VALID,80.4086,VALID,0,VALID,23.6622,VALID,146,VALID,1.61758,
2009-09-06, 00:50:05,VALID,1000.41,VALID,0,VALID,80.6298,VALID,0,VALID,23.6019,VALID,144,VALID,1.52852,
2009-09-06, 00:51:05,VALID,1000.36,VALID,0,VALID,80.7519,VALID,0,VALID,23.5841,VALID,159,VALID,1.76836,
2009-09-06, 00:52:05,VALID,1000.36,VALID,0,VALID,80.5306,VALID,0,VALID,23.6036,VALID,148,VALID,1.65195,
2009-09-06, 00:53:05,VALID,1000.36,VALID,0,VALID,80.3704,VALID,0,VALID,23.6036,VALID,148,VALID,1.40937,
2009-09-06, 00:54:05,VALID,1000.36,VALID,0,VALID,80.3704,VALID,0,VALID,23.6019,VALID,157,VALID,1.4918,
2009-09-06, 00:55:05,VALID,1000.32,VALID,0,VALID,80.2941,VALID,0,VALID,23.6427,VALID,154,VALID,1.40742,
2009-09-06, 00:56:05,VALID,1000.31,VALID,0,VALID,80.256,VALID,0,VALID,23.6427,VALID,164,VALID,1.06523,
2009-09-06, 00:57:05,VALID,1000.28,VALID,0,VALID,80.1568,VALID,0,VALID,23.6409,VALID,163,VALID,1.07187,
2009-09-06, 00:58:05,VALID,1000.3,VALID,0,VALID,79.9966,VALID,0,VALID,23.703,VALID,171,VALID,1.23984,
2009-09-06, 00:59:05,VALID,1000.28,VALID,0,VALID,79.8516,VALID,0,VALID,23.7012,VALID,165,VALID,1.28633,
2009-09-06, 01:00:05,VALID,1000.28,VALID,0,VALID,79.76,VALID,0,VALID,23.7012,VALID,133,VALID,1.70664,
2009-09-06, 01:01:05,VALID,1000.27,VALID,0,VALID,79.3404,VALID,0,VALID,23.7793,VALID,156,VALID,1.6668,
2009-09-06, 01:02:05,VALID,1000.26,VALID,0,VALID,78.9589,VALID,0,VALID,23.8378,VALID,160,VALID,1.94141,
2009-09-06, 01:03:05,VALID,1000.24,VALID,0,VALID,78.7148,VALID,0,VALID,23.8982,VALID,167,VALID,1.37852,
2009-09-06, 01:04:05,VALID,1000.23,VALID,0,VALID,78.8369,VALID,0,VALID,23.8378,VALID,167,VALID,1.42578,
2009-09-06, 01:05:05,VALID,1000.19,VALID,0,VALID,79.02,VALID,0,VALID,23.8378,VALID,176,VALID,1.63242,
2009-09-06, 01:06:05,VALID,1000.2,VALID,0,VALID,78.9208,VALID,0,VALID,23.8573,VALID,170,VALID,1.67539,
2009-09-06, 01:07:05,VALID,1000.14,VALID,0,VALID,78.5775,VALID,0,VALID,23.9177,VALID,168,VALID,1.51563,
2009-09-06, 01:08:05,VALID,1000.11,VALID,0,VALID,78.3333,VALID,0,VALID,23.9159,VALID,168,VALID,1.70469,
2009-09-06, 01:09:05,VALID,1000.1,VALID,0,VALID,78.3715,VALID,0,VALID,23.8573,VALID,170,VALID,1.65898,
2009-09-06, 01:10:05,VALID,1000.06,VALID,0,VALID,78.6614,VALID,0,VALID,23.8183,VALID,161,VALID,1.42578,
2009-09-06, 01:11:05,VALID,1000.04,VALID,0,VALID,78.9666,VALID,0,VALID,23.7597,VALID,152,VALID,1.19727,
2009-09-06, 01:12:05,VALID,1000.05,VALID,0,VALID,79.287,VALID,0,VALID,23.7012,VALID,159,VALID,1.23008,
2009-09-06, 01:13:05,VALID,1000.02,VALID,0,VALID,79.5846,VALID,0,VALID,23.6835,VALID,164,VALID,1.22891,
2009-09-06, 01:14:05,VALID,1000.03,VALID,0,VALID,79.8211,VALID,0,VALID,23.6232,VALID,167,VALID,1.39688,
2009-09-06, 01:15:05,VALID,999.971,VALID,0,VALID,79.966,VALID,0,VALID,23.6054,VALID,168,VALID,1.03047,
2009-09-06, 01:16:05,VALID,999.994,VALID,0,VALID,80.0881,VALID,0,VALID,23.5859,VALID,169,VALID,0.989844,
2009-09-06, 01:17:05,VALID,1000.02,VALID,0,VALID,80.05,VALID,0,VALID,23.5859,VALID,159,VALID,0.838672,
2009-09-06, 01:18:05,VALID,999.995,VALID,0,VALID,80.0881,VALID,0,VALID,23.5451,VALID,162,VALID,0.889844,
2009-09-06, 01:19:05,VALID,1000,VALID,0,VALID,80.256,VALID,0,VALID,23.5274,VALID,162,VALID,0.682813,
2009-09-06, 01:20:05,VALID,999.982,VALID,0,VALID,80.378,VALID,0,VALID,23.4884,VALID,162,VALID,0.756641,
2009-09-06, 01:21:05,VALID,999.986,VALID,0,VALID,80.3475,VALID,0,VALID,23.4671,VALID,159,VALID,0.742578,
2009-09-06, 01:22:05,VALID,999.966,VALID,0,VALID,80.5993,VALID,0,VALID,23.4884,VALID,143,VALID,1.0332,
2009-09-06, 01:23:05,VALID,999.961,VALID,0,VALID,80.6222,VALID,0,VALID,23.4493,VALID,145,VALID,1.17148,
2009-09-06, 01:24:05,VALID,999.931,VALID,0,VALID,80.7748,VALID,0,VALID,23.4085,VALID,143,VALID,1.45234,
2009-09-06, 01:25:05,VALID,999.945,VALID,0,VALID,80.7824,VALID,0,VALID,23.4298,VALID,136,VALID,1.30508,
2009-09-06, 01:26:05,VALID,999.956,VALID,0,VALID,80.9808,VALID,0,VALID,23.3695,VALID,141,VALID,1.30898,
2009-09-06, 01:27:05,VALID,999.896,VALID,0,VALID,81.1792,VALID,0,VALID,23.3518,VALID,134,VALID,1.58633,
2009-09-06, 01:28:05,VALID,999.874,VALID,0,VALID,81.1868,VALID,0,VALID,23.35,VALID,131,VALID,1.50352,
2009-09-06, 01:29:05,VALID,999.894,VALID,0,VALID,81.202,VALID,0,VALID,23.3713,VALID,139,VALID,1.41875,
2009-09-06, 01:30:05,VALID,999.88,VALID,0,VALID,81.0647,VALID,0,VALID,23.3695,VALID,149,VALID,1.23359,
2009-09-06, 01:31:05,VALID,999.878,VALID,0,VALID,80.9884,VALID,0,VALID,23.3908,VALID,147,VALID,1.37031,
2009-09-06, 01:32:05,VALID,999.877,VALID,0,VALID,80.8358,VALID,0,VALID,23.389,VALID,143,VALID,1.05781,
2009-09-06, 01:33:05,VALID,999.89,VALID,0,VALID,80.9732,VALID,0,VALID,23.3908,VALID,139,VALID,1.39453,
2009-09-06, 01:34:05,VALID,999.881,VALID,0,VALID,80.9732,VALID,0,VALID,23.3908,VALID,143,VALID,1.13828,
2009-09-06, 01:35:05,VALID,999.885,VALID,0,VALID,81.0342,VALID,0,VALID,23.3695,VALID,154,VALID,1.05078,
2009-09-06, 01:36:05,VALID,999.88,VALID,0,VALID,81.1105,VALID,0,VALID,23.3713,VALID,148,VALID,0.969922,
2009-09-06, 01:37:05,VALID,999.846,VALID,0,VALID,81.1257,VALID,0,VALID,23.3908,VALID,152,VALID,0.772266,
2009-09-06, 01:38:05,VALID,999.822,VALID,0,VALID,81.2631,VALID,0,VALID,23.3713,VALID,152,VALID,1.14063,
2009-09-06, 01:39:05,VALID,999.827,VALID,0,VALID,81.2097,VALID,0,VALID,23.3518,VALID,153,VALID,1.57422,
2009-09-06, 01:40:05,VALID,999.785,VALID,0,VALID,81.1639,VALID,0,VALID,23.3518,VALID,149,VALID,1.43633,
2009-09-06, 01:41:05,VALID,999.8,VALID,0,VALID,81.2097,VALID,0,VALID,23.3518,VALID,150,VALID,1.28437,
2009-09-06, 01:42:05,VALID,999.781,VALID,0,VALID,81.2326,VALID,0,VALID,23.2915,VALID,142,VALID,1.01641,
2009-09-06, 01:43:05,VALID,999.81,VALID,0,VALID,81.3546,VALID,0,VALID,23.2719,VALID,142,VALID,1.23828,
2009-09-06, 01:44:05,VALID,999.785,VALID,0,VALID,81.3928,VALID,0,VALID,23.2347,VALID,133,VALID,1.00977,
2009-09-06, 01:45:05,VALID,999.784,VALID,0,VALID,81.5759,VALID,0,VALID,23.1939,VALID,154,VALID,1.00469,
2009-09-06, 01:46:05,VALID,999.766,VALID,0,VALID,81.5835,VALID,0,VALID,23.1744,VALID,153,VALID,1.60859,
2009-09-06, 01:47:05,VALID,999.765,VALID,0,VALID,81.3775,VALID,0,VALID,23.2152,VALID,149,VALID,0.996875,
2009-09-06, 01:48:05,VALID,999.711,VALID,0,VALID,81.2478,VALID,0,VALID,23.2347,VALID,149,VALID,1.30625,
2009-09-06, 01:49:05,VALID,999.681,VALID,0,VALID,81.1792,VALID,0,VALID,23.2524,VALID,146,VALID,1.11953,
2009-09-06, 01:50:05,VALID,999.678,VALID,0,VALID,81.141,VALID,0,VALID,23.2719,VALID,131,VALID,1.81211,
2009-09-06, 01:51:05,VALID,999.674,VALID,0,VALID,80.8969,VALID,0,VALID,23.2915,VALID,153,VALID,1.82773,
2009-09-06, 01:52:05,VALID,999.658,VALID,0,VALID,80.8587,VALID,0,VALID,23.35,VALID,149,VALID,1.70508,
2009-09-06, 01:53:05,VALID,999.666,VALID,0,VALID,80.8892,VALID,0,VALID,23.3518,VALID,156,VALID,1.51133,
2009-09-06, 01:54:05,VALID,999.662,VALID,0,VALID,80.6909,VALID,0,VALID,23.3908,VALID,154,VALID,1.6418,
2009-09-06, 01:55:05,VALID,999.661,VALID,0,VALID,80.5612,VALID,0,VALID,23.4298,VALID,161,VALID,1.51602,
2009-09-06, 01:56:05,VALID,999.634,VALID,0,VALID,80.5917,VALID,0,VALID,23.4103,VALID,145,VALID,1.66484,
2009-09-06, 01:57:05,VALID,999.6,VALID,0,VALID,80.6222,VALID,0,VALID,23.35,VALID,141,VALID,1.90859,
2009-09-06, 01:58:04,VALID,999.598,VALID,0,VALID,80.6298,VALID,0,VALID,23.35,VALID,145,VALID,1.80625,
2009-09-06, 01:59:04,VALID,999.586,VALID,0,VALID,80.6146,VALID,0,VALID,23.3713,VALID,149,VALID,1.4457,
2009-09-06, 02:00:04,VALID,999.552,VALID,0,VALID,80.584,VALID,0,VALID,23.35,VALID,147,VALID,1.95156,
2009-09-06, 02:01:04,VALID,999.556,VALID,0,VALID,80.5535,VALID,0,VALID,23.3305,VALID,157,VALID,1.73789,
2009-09-06, 02:02:04,VALID,999.566,VALID,0,VALID,80.6069,VALID,0,VALID,23.35,VALID,162,VALID,1.42422,
2009-09-06, 02:03:04,VALID,999.532,VALID,0,VALID,80.5078,VALID,0,VALID,23.3305,VALID,161,VALID,1.86523,
2009-09-06, 02:04:04,VALID,999.524,VALID,0,VALID,80.4391,VALID,0,VALID,23.3713,VALID,157,VALID,1.62969,
2009-09-06, 02:05:04,VALID,999.501,VALID,0,VALID,80.1263,VALID,0,VALID,23.389,VALID,155,VALID,2.61211,
2009-09-06, 02:06:04,VALID,999.482,VALID,0,VALID,79.6151,VALID,0,VALID,23.428,VALID,154,VALID,2.78711,
2009-09-06, 02:07:04,VALID,999.476,VALID,0,VALID,79.4625,VALID,0,VALID,23.4884,VALID,142,VALID,1.77578,
2009-09-06, 02:08:04,VALID,999.461,VALID,0,VALID,79.2565,VALID,0,VALID,23.4866,VALID,149,VALID,2.17383,
2009-09-06, 02:09:04,VALID,999.495,VALID,0,VALID,79.2565,VALID,0,VALID,23.5079,VALID,163,VALID,1.68398,
2009-09-06, 02:10:04,VALID,999.47,VALID,0,VALID,79.226,VALID,0,VALID,23.4671,VALID,162,VALID,1.41562,
2009-09-06, 02:11:04,VALID,999.476,VALID,0,VALID,79.0352,VALID,0,VALID,23.4884,VALID,167,VALID,1.93281,
2009-09-06, 02:12:04,VALID,999.489,VALID,0,VALID,78.8598,VALID,0,VALID,23.5061,VALID,170,VALID,1.97695,
2009-09-06, 02:13:04,VALID,999.492,VALID,0,VALID,78.2952,VALID,0,VALID,23.5646,VALID,168,VALID,2.48828,
2009-09-06, 02:14:04,VALID,999.488,VALID,0,VALID,78.0815,VALID,0,VALID,23.6427,VALID,156,VALID,1.97969,
2009-09-06, 02:15:04,VALID,999.48,VALID,0,VALID,78.1426,VALID,0,VALID,23.6427,VALID,151,VALID,1.95859,
2009-09-06, 02:16:04,VALID,999.511,VALID,0,VALID,78.1426,VALID,0,VALID,23.6427,VALID,157,VALID,1.51133,
2009-09-06, 02:17:04,VALID,999.514,VALID,0,VALID,78.2265,VALID,0,VALID,23.6036,VALID,166,VALID,1.39453,
2009-09-06, 02:18:04,VALID,999.537,VALID,0,VALID,78.2112,VALID,0,VALID,23.6232,VALID,159,VALID,1.3168,
2009-09-06, 02:19:04,VALID,999.511,VALID,0,VALID,78.2036,VALID,0,VALID,23.5841,VALID,150,VALID,1.65664,
2009-09-06, 02:20:04,VALID,999.501,VALID,0,VALID,78.402,VALID,0,VALID,23.5451,VALID,143,VALID,1.32305,
2009-09-06, 02:21:04,VALID,999.497,VALID,0,VALID,78.524,VALID,0,VALID,23.5061,VALID,141,VALID,2.06133,
2009-09-06, 02:22:04,VALID,999.502,VALID,0,VALID,78.5775,VALID,0,VALID,23.5274,VALID,148,VALID,1.51367,
2009-09-06, 02:23:04,VALID,999.506,VALID,0,VALID,78.6614,VALID,0,VALID,23.4866,VALID,144,VALID,1.30586,
2009-09-06, 02:24:04,VALID,999.522,VALID,0,VALID,78.73,VALID,0,VALID,23.4671,VALID,150,VALID,1.11172,
2009-09-06, 02:25:04,VALID,999.5,VALID,0,VALID,78.6995,VALID,0,VALID,23.4688,VALID,157,VALID,1.71094,
2009-09-06, 02:26:04,VALID,999.498,VALID,0,VALID,78.5698,VALID,0,VALID,23.4884,VALID,162,VALID,1.83203,
2009-09-06, 02:27:04,VALID,999.523,VALID,0,VALID,78.3638,VALID,0,VALID,23.5274,VALID,161,VALID,1.2832,
2009-09-06, 02:28:04,VALID,999.491,VALID,0,VALID,78.3791,VALID,0,VALID,23.5664,VALID,171,VALID,1.55078,
2009-09-06, 02:29:04,VALID,999.489,VALID,0,VALID,78.3333,VALID,0,VALID,23.5256,VALID,168,VALID,1.48281,
2009-09-06, 02:30:04,VALID,999.499,VALID,0,VALID,78.3486,VALID,0,VALID,23.5451,VALID,163,VALID,1.48984,
2009-09-06, 02:31:04,VALID,999.536,VALID,0,VALID,78.2875,VALID,0,VALID,23.5859,VALID,160,VALID,1.42383,
2009-09-06, 02:32:04,VALID,999.556,VALID,0,VALID,78.2952,VALID,0,VALID,23.5859,VALID,169,VALID,1.53164,
2009-09-06, 02:33:04,VALID,999.547,VALID,0,VALID,78.402,VALID,0,VALID,23.5451,VALID,161,VALID,1.65078,
2009-09-06, 02:34:04,VALID,999.566,VALID,0,VALID,78.4706,VALID,0,VALID,23.5061,VALID,159,VALID,1.54727,
2009-09-06, 02:35:04,VALID,999.575,VALID,0,VALID,78.3409,VALID,0,VALID,23.5274,VALID,157,VALID,1.70664,
2009-09-06, 02:36:04,VALID,999.587,VALID,0,VALID,78.2646,VALID,0,VALID,23.5061,VALID,166,VALID,1.43984,
2009-09-06, 02:37:04,VALID,999.561,VALID,0,VALID,78.257,VALID,0,VALID,23.4866,VALID,161,VALID,1.33711,
2009-09-06, 02:38:04,VALID,999.545,VALID,0,VALID,78.2723,VALID,0,VALID,23.4671,VALID,180,VALID,1.43711,
2009-09-06, 02:39:04,VALID,999.54,VALID,0,VALID,78.2646,VALID,0,VALID,23.4866,VALID,175,VALID,1.43906,
2009-09-06, 02:40:04,VALID,999.504,VALID,0,VALID,78.1197,VALID,0,VALID,23.5061,VALID,170,VALID,1.23164,
2009-09-06, 02:41:04,VALID,999.496,VALID,0,VALID,78.0358,VALID,0,VALID,23.5256,VALID,167,VALID,0.867188,
2009-09-06, 02:42:04,VALID,999.501,VALID,0,VALID,77.9061,VALID,0,VALID,23.5469,VALID,160,VALID,1.62344,
2009-09-06, 02:43:04,VALID,999.479,VALID,0,VALID,77.6543,VALID,0,VALID,23.5664,VALID,164,VALID,1.23594,
2009-09-06, 02:44:04,VALID,999.502,VALID,0,VALID,77.5932,VALID,0,VALID,23.5859,VALID,169,VALID,1.84023,
2009-09-06, 02:45:04,VALID,999.502,VALID,0,VALID,77.6085,VALID,0,VALID,23.5451,VALID,169,VALID,1.72422,
2009-09-06, 02:46:04,VALID,999.504,VALID,0,VALID,77.7763,VALID,0,VALID,23.5256,VALID,163,VALID,1.65977,
2009-09-06, 02:47:04,VALID,999.491,VALID,0,VALID,77.9366,VALID,0,VALID,23.5274,VALID,141,VALID,1.41719,
2009-09-06, 02:48:04,VALID,999.489,VALID,0,VALID,78.0663,VALID,0,VALID,23.4866,VALID,146,VALID,1.43633,
2009-09-06, 02:49:04,VALID,999.478,VALID,0,VALID,78.1807,VALID,0,VALID,23.4475,VALID,153,VALID,1.7832,
2009-09-06, 02:50:04,VALID,999.471,VALID,0,VALID,78.3562,VALID,0,VALID,23.4475,VALID,152,VALID,1.66562,
2009-09-06, 02:51:04,VALID,999.455,VALID,0,VALID,78.3943,VALID,0,VALID,23.4085,VALID,168,VALID,1.62305,
2009-09-06, 02:52:04,VALID,999.428,VALID,0,VALID,78.524,VALID,0,VALID,23.3695,VALID,161,VALID,1.44492,
2009-09-06, 02:53:04,VALID,999.476,VALID,0,VALID,78.3715,VALID,0,VALID,23.3908,VALID,144,VALID,1.82109,
2009-09-06, 02:54:04,VALID,999.453,VALID,0,VALID,78.3486,VALID,0,VALID,23.4085,VALID,141,VALID,1.36367,
2009-09-06, 02:55:04,VALID,999.451,VALID,0,VALID,78.6156,VALID,0,VALID,23.3695,VALID,153,VALID,1.46836,
2009-09-06, 02:56:04,VALID,999.471,VALID,0,VALID,78.8979,VALID,0,VALID,23.3305,VALID,152,VALID,1.39023,
2009-09-06, 02:57:04,VALID,999.475,VALID,0,VALID,79.1039,VALID,0,VALID,23.3127,VALID,132,VALID,1.58594,
2009-09-06, 02:58:04,VALID,999.433,VALID,0,VALID,79.2412,VALID,0,VALID,23.2737,VALID,147,VALID,1.98789,
2009-09-06, 02:59:04,VALID,999.447,VALID,0,VALID,79.3175,VALID,0,VALID,23.2347,VALID,141,VALID,1.58633,
2009-09-06, 03:00:04,VALID,999.45,VALID,0,VALID,79.5159,VALID,0,VALID,23.1939,VALID,145,VALID,1.17891,
2009-09-06, 03:01:04,VALID,999.441,VALID,0,VALID,79.6609,VALID,0,VALID,23.1939,VALID,151,VALID,1.33867,
2009-09-06, 03:02:04,VALID,999.467,VALID,0,VALID,79.7448,VALID,0,VALID,23.1957,VALID,163,VALID,1.28672,
2009-09-06, 03:03:04,VALID,999.422,VALID,0,VALID,79.7295,VALID,0,VALID,23.1549,VALID,162,VALID,1.35039,
2009-09-06, 03:04:04,VALID,999.454,VALID,0,VALID,79.8211,VALID,0,VALID,23.1549,VALID,152,VALID,1.36016,
2009-09-06, 03:05:04,VALID,999.442,VALID,0,VALID,79.7982,VALID,0,VALID,23.1549,VALID,161,VALID,0.996094,
2009-09-06, 03:06:04,VALID,999.474,VALID,0,VALID,79.7372,VALID,0,VALID,23.1957,VALID,170,VALID,2.0957,
2009-09-06, 03:07:04,VALID,999.453,VALID,0,VALID,79.5388,VALID,0,VALID,23.2134,VALID,150,VALID,1.25859,
2009-09-06, 03:08:04,VALID,999.454,VALID,0,VALID,79.5159,VALID,0,VALID,23.2329,VALID,151,VALID,1.16641,
2009-09-06, 03:09:04,VALID,999.482,VALID,0,VALID,79.6914,VALID,0,VALID,23.1939,VALID,146,VALID,1.49805,
2009-09-06, 03:10:04,VALID,999.49,VALID,0,VALID,79.7677,VALID,0,VALID,23.1939,VALID,138,VALID,1.62188,
2009-09-06, 03:11:04,VALID,999.475,VALID,0,VALID,79.8058,VALID,0,VALID,23.1744,VALID,150,VALID,1.66797,
2009-09-06, 03:12:04,VALID,999.478,VALID,0,VALID,79.7677,VALID,0,VALID,23.1957,VALID,156,VALID,1.28516,
2009-09-06, 03:13:04,VALID,999.49,VALID,0,VALID,79.7524,VALID,0,VALID,23.1939,VALID,155,VALID,1.29844,
2009-09-06, 03:14:04,VALID,999.485,VALID,0,VALID,79.6914,VALID,0,VALID,23.1939,VALID,152,VALID,1.30625,
2009-09-06, 03:15:04,VALID,999.484,VALID,0,VALID,79.7906,VALID,0,VALID,23.1957,VALID,162,VALID,1.36602,
2009-09-06, 03:16:04,VALID,999.513,VALID,0,VALID,79.7372,VALID,0,VALID,23.1744,VALID,149,VALID,1.18594,
2009-09-06, 03:17:04,VALID,999.512,VALID,0,VALID,79.7066,VALID,0,VALID,23.1939,VALID,168,VALID,1.05234,
2009-09-06, 03:18:04,VALID,999.518,VALID,0,VALID,79.4549,VALID,0,VALID,23.2347,VALID,159,VALID,0.942578,
2009-09-06, 03:19:04,VALID,999.562,VALID,0,VALID,79.1802,VALID,0,VALID,23.2719,VALID,157,VALID,0.888281,
2009-09-06, 03:20:04,VALID,999.56,VALID,0,VALID,78.9055,VALID,0,VALID,23.2915,VALID,151,VALID,1.01641,
2009-09-06, 03:21:04,VALID,999.548,VALID,0,VALID,78.8674,VALID,0,VALID,23.3323,VALID,139,VALID,1.03047,
2009-09-06, 03:22:04,VALID,999.534,VALID,0,VALID,78.9437,VALID,0,VALID,23.311,VALID,149,VALID,1.3125,
2009-09-06, 03:23:04,VALID,999.542,VALID,0,VALID,78.6003,VALID,0,VALID,23.311,VALID,148,VALID,1.0375,
2009-09-06, 03:24:04,VALID,999.531,VALID,0,VALID,78.6003,VALID,0,VALID,23.2915,VALID,145,VALID,1.13125,
2009-09-06, 03:25:04,VALID,999.541,VALID,0,VALID,78.6461,VALID,0,VALID,23.2719,VALID,146,VALID,1.31445,
2009-09-06, 03:26:04,VALID,999.511,VALID,0,VALID,78.6461,VALID,0,VALID,23.2524,VALID,142,VALID,1.63047,
2009-09-06, 03:27:04,VALID,999.546,VALID,0,VALID,78.4478,VALID,0,VALID,23.2719,VALID,140,VALID,1.75078,
2009-09-06, 03:28:04,VALID,999.533,VALID,0,VALID,78.5469,VALID,0,VALID,23.2719,VALID,131,VALID,1.52773,
2009-09-06, 03:29:04,VALID,999.523,VALID,0,VALID,78.7224,VALID,0,VALID,23.2524,VALID,132,VALID,1.45156,
2009-09-06, 03:30:04,VALID,999.528,VALID,0,VALID,78.8979,VALID,0,VALID,23.2329,VALID,153,VALID,1.40391,
2009-09-06, 03:31:04,VALID,999.512,VALID,0,VALID,79.1497,VALID,0,VALID,23.1939,VALID,149,VALID,1.36602,
2009-09-06, 03:32:04,VALID,999.506,VALID,0,VALID,79.4243,VALID,0,VALID,23.1549,VALID,145,VALID,1.25391,
2009-09-06, 03:33:04,VALID,999.515,VALID,0,VALID,79.5006,VALID,0,VALID,23.1549,VALID,144,VALID,1.80938,
2009-09-06, 03:34:04,VALID,999.535,VALID,0,VALID,79.4549,VALID,0,VALID,23.1744,VALID,147,VALID,1.45469,
2009-09-06, 03:35:04,VALID,999.55,VALID,0,VALID,79.5464,VALID,0,VALID,23.1549,VALID,147,VALID,1.50039,
2009-09-06, 03:36:04,VALID,999.547,VALID,0,VALID,79.7372,VALID,0,VALID,23.1354,VALID,152,VALID,1.4375,
2009-09-06, 03:37:04,VALID,999.557,VALID,0,VALID,79.844,VALID,0,VALID,23.0964,VALID,148,VALID,1.70977,
2009-09-06, 03:38:04,VALID,999.565,VALID,0,VALID,79.8516,VALID,0,VALID,23.0964,VALID,160,VALID,1.49336,
2009-09-06, 03:39:04,VALID,999.567,VALID,0,VALID,79.8516,VALID,0,VALID,23.1159,VALID,156,VALID,1.61641,
2009-09-06, 03:40:04,VALID,999.552,VALID,0,VALID,79.5922,VALID,0,VALID,23.1566,VALID,165,VALID,1.72109,
2009-09-06, 03:41:04,VALID,999.548,VALID,0,VALID,79.2183,VALID,0,VALID,23.2134,VALID,154,VALID,1.79258,
2009-09-06, 03:42:04,VALID,999.551,VALID,0,VALID,79.1039,VALID,0,VALID,23.2524,VALID,145,VALID,2.21016,
2009-09-06, 03:43:04,VALID,999.526,VALID,0,VALID,78.8903,VALID,0,VALID,23.3305,VALID,150,VALID,1.59727,
2009-09-06, 03:44:04,VALID,999.562,VALID,0,VALID,78.8979,VALID,0,VALID,23.311,VALID,164,VALID,1.61602,
2009-09-06, 03:45:04,VALID,999.569,VALID,0,VALID,79.2183,VALID,0,VALID,23.2932,VALID,160,VALID,1.58125,
2009-09-06, 03:46:04,VALID,999.557,VALID,0,VALID,79.3023,VALID,0,VALID,23.2524,VALID,150,VALID,1.52656,